TimeCST,TemperatureF,Dew PointF,Humidity,Sea Level PressureIn,VisibilityMPH,Wind Direction,Wind SpeedMPH,Gust SpeedMPH,PrecipitationIn,Events,Conditions,WindDirDegrees,DateUTC
12:55 AM,5.0,-2.0,73,30.31,10.0,SE,6.9,-,N/A,,Clear,130,2013-01-26 06:55:00
1:55 AM,3.9,-2.0,76,30.30,10.0,SE,6.9,-,N/A,,Clear,130,2013-01-26 07:55:00
2:55 AM,3.9,-2.0,76,30.30,10.0,SE,6.9,-,N/A,,Clear,130,2013-01-26 08:55:00
3:55 AM,3.9,-2.0,76,30.26,10.0,SE,8.1,-,N/A,,Clear,140,2013-01-26 09:55:00
4:55 AM,5.0,-0.9,76,30.23,10.0,SE,8.1,-,N/A,,Clear,140,2013-01-26 10:55:00
5:55 AM,6.1,-0.0,76,30.22,10.0,SE,10.4,-,N/A,,Clear,140,2013-01-26 11:55:00
6:55 AM,8.1,-0.0,70,30.22,10.0,SSE,10.4,-,N/A,,Clear,160,2013-01-26 12:55:00
7:55 AM,8.1,-0.0,70,30.20,10.0,SSE,10.4,-,N/A,,Clear,150,2013-01-26 13:55:00
8:55 AM,9.0,1.0,70,30.19,10.0,SSE,9.2,19.6,N/A,,Clear,150,2013-01-26 14:55:00
9:55 AM,10.9,1.9,67,30.18,10.0,SSE,12.7,17.3,N/A,,Clear,150,2013-01-26 15:55:00
10:55 AM,15.1,6.1,68,30.15,10.0,SSE,15.0,20.7,N/A,,Clear,150,2013-01-26 16:55:00
11:55 AM,18.0,9.0,68,30.12,10.0,SSE,11.5,19.6,N/A,,Clear,150,2013-01-26 17:55:00
12:55 PM,19.9,12.0,71,30.09,10.0,SSE,11.5,-,N/A,,Clear,150,2013-01-26 18:55:00
1:55 PM,23.0,15.1,72,30.06,10.0,SSE,8.1,-,N/A,,Clear,150,2013-01-26 19:55:00
2:55 PM,26.1,17.1,69,30.03,10.0,SE,9.2,-,N/A,,Clear,140,2013-01-26 20:55:00
3:55 PM,28.0,19.0,69,30.02,10.0,ESE,6.9,-,N/A,,Clear,110,2013-01-26 21:55:00
4:55 PM,28.9,21.0,72,29.99,10.0,ESE,9.2,-,N/A,,Clear,120,2013-01-26 22:55:00
5:55 PM,27.0,19.9,75,29.98,10.0,SE,6.9,-,N/A,,Clear,140,2013-01-26 23:55:00
6:55 PM,21.9,18.0,85,30.01,10.0,North,4.6,-,N/A,,Clear,10,2013-01-27 00:55:00
7:55 PM,19.9,17.1,89,29.98,10.0,East,4.6,-,N/A,,Clear,100,2013-01-27 01:55:00
8:55 PM,19.0,16.0,88,29.97,10.0,NNE,4.6,-,N/A,,Clear,20,2013-01-27 02:55:00
9:55 PM,19.9,16.0,85,29.94,10.0,ENE,3.5,-,N/A,,Clear,60,2013-01-27 03:55:00
10:55 PM,19.0,16.0,88,29.94,10.0,Calm,Calm,-,N/A,,Clear,0,2013-01-27 04:55:00
11:55 PM,17.1,14.0,88,29.94,10.0,Calm,Calm,-,N/A,,Clear,0,2013-01-27 05:55:00